[[{"header":{"parameterUnit":"m.s-1","parameterCategory":1,"la1":30.2991,"la2":30.254,"lo1":-89.0895,"lo2":-89.0444,"dy":0.0017,"dx":0.0017,"nx":28,"ny":28,"refTime":"2025-06-01T21:00:00:Z","depth":0,"parameterNumber":2,"parameterNumberName":"U-component_of_WINDS"},"data":[0,0,0,0,0,0,0,0,0,0,0,0,0,0,0,0,0,0,0,0,0,0,0,0,0,0,0,0,0,0,0,0,0,0,0,0,0,0,0,0,0,0,0,0,0,0,0,0,0,0,0,0,0,0,0,0,0,0,-2.5649,-2.5649,0,-2.5679,-2.568,-2.568,-2.5624,-2.5622,-2.5621,-2.5619,-2.565,-2.5653,-2.5655,0,0,0,0,0,0,0,0,0,0,0,0,0,-2.5543,-2.5546,-2.5649,-2.5649,-2.565,-2.5679,-2.568,-2.568,-2.5625,-2.5622,-2.562,-2.5618,-2.5649,-2.5652,-2.5655,0,0,0,0,0,0,0,0,0,0,0,0,0,-2.5583,-2.5546,-2.5649,-2.5626,-2.5624,-2.5679,-2.568,-2.568,-2.5625,-2.5622,-2.5619,-2.5617,-2.5648,-2.5652,-2.5656,-2.5735,0,0,-2.5667,-2.5669,0,0,0,0,0,0,0,0,-2.5581,-2.5587,-2.5629,-2.5627,-2.5625,-2.5645,-2.5654,-2.5699,-2.5626,-2.5625,-2.5619,-2.5616,-2.5651,-2.5654,-2.5666,-2.5737,-2.5738,-2.5668,-2.567,-2.5672,-2.5673,0,0,0,0,0,0,0,-2.5578,-2.5585,-2.5661,-2.5629,-2.5627,-2.5614,-2.5616,-2.5662,-2.5653,-2.5625,-2.5621,-2.5625,-2.5649,-2.5662,-2.5666,-2.5738,-2.5668,-2.5671,-2.5673,-2.5675,-2.5875,-2.5877,0,0,0,0,0,0,-2.5578,-2.5584,-2.566,-2.5662,-2.5596,-2.5618,-2.5621,-2.5642,-2.5652,-2.5651,-2.5627,-2.5622,-2.5657,-2.5662,-2.5667,-2.576,-2.5672,-2.5675,-2.5678,-2.5872,-2.5875,-2.5878,0,0,0,0,0,0,-2.5576,-2.5586,-2.5659,-2.5622,-2.563,-2.5623,-2.5647,-2.5644,-2.5657,-2.5654,-2.5652,-2.5642,-2.5655,-2.5662,-2.5718,-2.576,-2.5677,-2.5681,-2.5868,-2.5873,-2.5877,-2.5946,0,0,0,0,0,0,-2.5574,-2.5585,-2.5616,-2.5623,-2.5632,-2.571,-2.5649,-2.5646,-2.5663,-2.5657,-2.5668,-2.5667,-2.5653,-2.5713,-2.5722,-2.5764,-2.5684,-2.5864,-2.587,-2.5875,-2.594,-2.5953,-2.5963,0,0,0,0,0,-2.557,-2.5634,-2.5617,-2.5627,-2.567,-2.5712,-2.5718,-2.5701,-2.5667,-2.5697,-2.5695,-2.5667,-2.5754,-2.5719,-2.5729,-2.5773,-2.5861,-2.5868,-2.5875,-2.5935,-2.595,-2.5963,0,0,0,0,0,0,-2.5633,-2.5635,-2.5616,-2.5685,-2.5699,-2.5703,-2.574,-2.5717,-2.5741,-2.5734,-2.5712,-2.5715,-2.5776,-2.578,-2.5741,-2.5849,-2.5802,-2.5811,-2.5845,-2.5859,-2.587,-2.5868,-2.5687,0,0,0,0,0,-2.5654,-2.5689,-2.5689,-2.5749,-2.5757,-2.5748,-2.5766,-2.5751,-2.5765,-2.5771,-2.5773,-2.5788,-2.5818,-2.5839,-2.5867,-2.5941,-2.5942,-2.5976,-2.5987,-2.5997,-2.6004,-2.6043,-2.6057,-2.5901,-2.5901,-2.59,0,0,-2.57,-2.5705,-2.5728,-2.5762,-2.5771,-2.5807,-2.5753,-2.5794,-2.582,-2.5777,-2.583,-2.5833,-2.5847,-2.5913,-2.5941,-2.5918,-2.6048,-2.6005,-2.6013,-2.6015,-2.6051,-2.6066,-2.6079,-2.5905,-2.5904,-2.5904,0,0,-2.58,-2.5808,-2.5859,-2.5869,-2.5883,-2.5876,-2.5889,-2.5896,-2.5896,-2.5949,-2.5918,-2.5949,-2.6002,-2.6013,-2.6026,-2.6131,-2.6105,-2.6141,-2.6201,-2.6238,-2.625,-2.6261,-2.6298,-2.6311,-2.6149,-2.6149,-2.6149,0,-2.5854,-2.5907,-2.5888,-2.593,-2.5946,-2.5908,-2.5959,-2.597,-2.5993,-2.6005,-2.5978,-2.6043,-2.6051,-2.6118,-2.6143,-2.6155,-2.6168,-2.6139,-2.625,-2.6261,-2.6271,-2.6305,-2.6319,-2.6153,-2.6153,-2.6152,-2.6152,0,-2.5973,-2.601,-2.6049,-2.6072,-2.6092,-2.6138,-2.6126,-2.6148,-2.6132,-2.6128,-2.6183,-2.619,-2.6218,-2.6234,-2.6219,-2.6298,-2.6283,-2.6254,-2.6206,-2.629,-2.6322,-2.6335,-2.6159,-2.6158,-2.6156,-2.6155,0,0,-2.6113,-2.6124,-2.6139,-2.6148,-2.6161,-2.6189,-2.6234,-2.6262,-2.6281,-2.6298,-2.6335,-2.6381,-2.6353,-2.6368,-2.6354,-2.6387,-2.6468,-2.6354,-2.6354,-2.6374,-2.6555,-2.6577,-2.6592,-2.6452,-2.6454,-2.6456,-2.6554,0,-2.6212,-2.6289,-2.6272,-2.6347,-2.6381,-2.6346,-2.6384,-2.6397,-2.6394,-2.6422,-2.6419,-2.6452,-2.6414,-2.6422,-2.6454,-2.6452,-2.6504,-2.6445,-2.6485,-2.6486,-2.6481,-2.6609,-2.6632,-2.6724,-2.6566,-2.6568,-2.657,0,-2.6338,-2.6359,-2.6438,-2.6444,-2.6457,-2.6493,-2.6516,-2.6544,-2.6556,-2.6552,-2.6568,-2.6548,-2.6592,-2.6544,-2.6604,-2.6564,-2.6579,-2.6581,-2.6584,-2.6586,-2.6533,-2.6614,-2.6753,-2.6766,-2.6589,-2.6588,-2.6587,0,-2.6431,-2.648,-2.6532,-2.6542,-2.6551,-2.6576,-2.6582,-2.6592,-2.6609,-2.663,-2.6641,-2.6667,-2.668,-2.6701,-2.6688,-2.6654,-2.675,-2.6701,-2.6747,-2.6747,-2.6768,-2.6766,-2.691,-2.678,-2.6779,-2.6779,-2.6779,0,-2.6543,-2.6592,-2.6574,-2.6607,-2.666,-2.6641,-2.6695,-2.6696,-2.6705,-2.6737,-2.6708,-2.6739,-2.672,-2.6749,-2.6739,-2.679,-2.6797,-2.6794,-2.6791,-2.6796,-2.6796,-2.6805,-2.6798,-2.6783,-2.6782,-2.6781,-2.6781,0,-2.6656,-2.6646,-2.6701,-2.6705,-2.6708,-2.6747,-2.675,-2.678,-2.6776,-2.6816,-2.6825,-2.6817,-2.685,-2.6839,-2.6874,-2.6867,-2.6931,-2.692,-2.6927,-2.6924,-2.697,-2.6965,-2.7124,-2.7143,-2.7001,-2.7002,-2.7003,0,-2.6728,-2.6764,-2.6772,-2.6791,-2.6798,-2.683,-2.6847,-2.6829,-2.6848,-2.6865,-2.6893,-2.6923,-2.6946,-2.7,-2.6997,-2.7024,-2.7013,-2.7066,-2.7016,-2.702,-2.7012,-2.701,-2.7013,-2.7076,-2.7078,-2.7079,-2.708,0,-2.6855,-2.6848,-2.6874,-2.6898,-2.692,-2.6938,-2.6954,-2.6971,-2.6954,-2.6977,-2.701,-2.7028,-2.7063,-2.7093,-2.7117,-2.7122,-2.7098,-2.7096,-2.7108,-2.7113,-2.7115,-2.7114,-2.6953,-2.7092,-2.7091,-2.709,-2.7089,-2.7089,-2.6949,-2.698,-2.699,-2.7019,-2.7029,-2.7044,-2.7072,-2.7071,-2.7097,-2.7124,-2.7113,-2.715,-2.7161,-2.7191,-2.7199,-2.7228,-2.7207,-2.7225,-2.7229,-2.7234,-2.7239,-2.7111,-2.7233,-2.7232,-2.7232,-2.7232,-2.7231,0,-2.7074,-2.7079,-2.7106,-2.7129,-2.7152,-2.7127,-2.7143,-2.7164,-2.7198,-2.721,-2.7233,-2.727,-2.7299,-2.7299,-2.7325,-2.7348,-2.7338,-2.7356,-2.7353,-2.7355,-2.7257,-2.7243,-2.7363,-2.7363,-2.7363,-2.7363,-2.7363,-2.7363,-2.7142,-2.7192,-2.7186,-2.7241,-2.7245,-2.7281,-2.7292,-2.7306,-2.7315,-2.7358,-2.7382,-2.7381,-2.7388,-2.7415,-2.744,-2.7439,-2.745,-2.7472,-2.7467,-2.7375,-2.7362,-2.7349,-2.7336,-2.7475,-2.7475,-2.7563,-2.7563,-2.7564]},{"header":{"parameterUnit":"m.s-1","parameterCategory":1,"la1":30.2991,"la2":30.254,"lo1":-89.0895,"lo2":-89.0444,"dy":0.0017,"dx":0.0017,"nx":28,"ny":28,"refTime":"2025-06-01T21:00:00:Z","depth":0,"parameterNumber":3,"parameterNumberName":"V-component_of_WINDS"},"data":[0,0,0,0,0,0,0,0,0,0,0,0,0,0,0,0,0,0,0,0,0,0,0,0,0,0,0,0,0,0,0,0,0,0,0,0,0,0,0,0,0,0,0,0,0,0,0,0,0,0,0,0,0,0,0,0,0,0,3.216,3.216,0,3.2177,3.2178,3.2178,3.2134,3.2132,3.2131,3.213,3.2146,3.2148,3.2149,0,0,0,0,0,0,0,0,0,0,0,0,0,3.2085,3.2087,3.216,3.216,3.216,3.2177,3.2178,3.2178,3.2134,3.2132,3.2131,3.2129,3.2146,3.2148,3.215,0,0,0,0,0,0,0,0,0,0,0,0,0,3.2112,3.2087,3.216,3.214,3.2139,3.2177,3.2178,3.2178,3.2134,3.2132,3.213,3.2128,3.2145,3.2147,3.215,3.2208,0,0,3.2158,3.2159,0,0,0,0,0,0,0,0,3.211,3.2114,3.2143,3.2142,3.214,3.2151,3.2157,3.2188,3.2135,3.2136,3.213,3.2127,3.2149,3.2151,3.2159,3.2208,3.2209,3.2158,3.216,3.2161,3.2162,0,0,0,0,0,0,0,3.2108,3.2113,3.2167,3.2143,3.2142,3.213,3.2131,3.2163,3.2154,3.2136,3.2132,3.2135,3.2148,3.2157,3.2159,3.2209,3.2158,3.216,3.2162,3.2163,3.2305,3.2307,0,0,0,0,0,0,3.2109,3.2112,3.2166,3.2167,3.212,3.2133,3.2135,3.215,3.2154,3.2152,3.2137,3.2133,3.2153,3.2156,3.216,3.2226,3.2161,3.2163,3.2165,3.2302,3.2305,3.2308,0,0,0,0,0,0,3.2108,3.2115,3.2165,3.2139,3.2144,3.2136,3.2154,3.2151,3.216,3.2155,3.2153,3.2148,3.2152,3.2156,3.2196,3.2226,3.2164,3.2167,3.23,3.2303,3.2306,3.236,0,0,0,0,0,0,3.2106,3.2114,3.2137,3.214,3.2146,3.2202,3.2156,3.2153,3.2165,3.216,3.2164,3.2163,3.2151,3.2192,3.2198,3.2228,3.2169,3.2297,3.2301,3.2305,3.2355,3.2365,3.2372,0,0,0,0,0,3.2104,3.2151,3.2138,3.2145,3.2174,3.2204,3.2207,3.2193,3.2167,3.2189,3.2186,3.2163,3.2222,3.2197,3.2203,3.2234,3.2295,3.23,3.2305,3.2351,3.2363,3.2372,0,0,0,0,0,0,3.2152,3.2151,3.2137,3.2187,3.2196,3.2196,3.2223,3.2205,3.2221,3.2216,3.2196,3.2198,3.2241,3.2242,3.2213,3.229,3.2254,3.2261,3.2287,3.2298,3.2306,3.2304,3.2171,0,0,0,0,0,3.2168,3.2193,3.2191,3.2236,3.2241,3.2232,3.2244,3.2232,3.224,3.2243,3.2243,3.2251,3.2271,3.2285,3.2303,3.2356,3.2355,3.2381,3.2389,3.2396,3.2401,3.2428,3.2438,3.2324,3.2324,3.2324,0,0,3.2203,3.2205,3.2222,3.2245,3.2251,3.2276,3.2235,3.2263,3.2281,3.2247,3.2284,3.2284,3.2292,3.2338,3.2358,3.234,3.2433,3.2403,3.2408,3.241,3.2434,3.2445,3.2454,3.2327,3.2327,3.2326,0,0,3.2277,3.2283,3.2319,3.2326,3.2334,3.2328,3.2337,3.234,3.2338,3.2376,3.235,3.2371,3.2407,3.2413,3.2421,3.2497,3.2476,3.2504,3.2548,3.2574,3.2583,3.2591,3.2616,3.2626,3.251,3.251,3.251,0,3.2318,3.2356,3.2341,3.237,3.2381,3.2352,3.2388,3.2394,3.2409,3.2416,3.2396,3.2439,3.2443,3.2489,3.2507,3.2515,3.2524,3.2503,3.2583,3.2591,3.2598,3.2622,3.2632,3.2513,3.2513,3.2512,3.2512,0,3.2405,3.2431,3.246,3.2474,3.2488,3.2521,3.251,3.2525,3.2512,3.2507,3.2545,3.2548,3.2566,3.2576,3.2564,3.262,3.2608,3.2586,3.255,3.2612,3.2634,3.2643,3.2518,3.2516,3.2515,3.2515,0,0,3.251,3.2515,3.2526,3.2531,3.2539,3.2558,3.2589,3.2607,3.262,3.2631,3.2656,3.2686,3.2665,3.2674,3.2663,3.2685,3.2744,3.266,3.266,3.2674,3.2804,3.2819,3.283,3.273,3.2732,3.2734,3.2803,0,3.2582,3.2636,3.2623,3.2676,3.2699,3.2672,3.2698,3.2705,3.2702,3.272,3.2716,3.2738,3.271,3.2714,3.2736,3.2732,3.2769,3.2727,3.2752,3.2753,3.2749,3.2842,3.2859,3.2924,3.2811,3.2813,3.2814,0,3.2674,3.2688,3.2743,3.2745,3.2754,3.2779,3.2793,3.2812,3.2819,3.2815,3.2825,3.2808,3.2838,3.2802,3.2842,3.2814,3.2823,3.2823,3.2825,3.2825,3.2786,3.2843,3.2944,3.2953,3.2828,3.2827,3.2826,0,3.2742,3.2775,3.2812,3.2818,3.2822,3.284,3.2842,3.2847,3.2858,3.2871,3.2877,3.2894,3.2902,3.2915,3.2902,3.2878,3.2944,3.2908,3.294,3.294,3.2953,3.2952,3.3055,3.2963,3.2962,3.2962,3.2962,0,3.2823,3.2858,3.2843,3.2865,3.2903,3.2887,3.2924,3.2923,3.2928,3.2949,3.2927,3.2947,3.293,3.2949,3.294,3.2973,3.2978,3.2974,3.2971,3.2975,3.2975,3.2979,3.2974,3.2965,3.2964,3.2964,3.2963,0,3.2906,3.2897,3.2935,3.2936,3.2937,3.2964,3.2964,3.2985,3.2979,3.3006,3.3012,3.3004,3.3024,3.3014,3.3035,3.3029,3.3072,3.3063,3.3069,3.3066,3.3098,3.3094,3.3206,3.3219,3.312,3.3121,3.3122,0,3.2957,3.2983,3.2986,3.2999,3.3003,3.3024,3.3035,3.302,3.3032,3.3042,3.3061,3.3079,3.3093,3.3127,3.3123,3.3139,3.3129,3.3168,3.3132,3.3135,3.3128,3.3126,3.3127,3.3174,3.3175,3.3176,3.3177,0,3.3049,3.3043,3.306,3.3076,3.3089,3.3101,3.311,3.3122,3.3107,3.3122,3.3143,3.3154,3.3176,3.3194,3.3208,3.3209,3.319,3.3189,3.3197,3.32,3.3202,3.3199,3.3087,3.3186,3.3185,3.3184,3.3184,3.3183,3.3116,3.3137,3.3142,3.3161,3.3167,3.3176,3.3195,3.3192,3.3209,3.3225,3.3216,3.324,3.3245,3.3261,3.3266,3.3283,3.3268,3.328,3.3283,3.3285,3.3289,3.3201,3.3286,3.3286,3.3286,3.3285,3.3285,0,3.3205,3.3206,3.3225,3.3238,3.3253,3.3235,3.3244,3.3258,3.3279,3.3286,3.33,3.3323,3.3341,3.3338,3.3353,3.3368,3.336,3.3373,3.337,3.3371,3.3303,3.3293,3.3379,3.3379,3.3379,3.3379,3.3379,3.3379,3.3252,3.3286,3.3281,3.3317,3.3319,3.3342,3.3349,3.3356,3.3361,3.3388,3.3403,3.3401,3.3403,3.3419,3.3434,3.3432,3.3438,3.3454,3.3449,3.3385,3.3376,3.3367,3.3358,3.3456,3.3456,3.3515,3.3516,3.3516]}]]